Location: Augirein
(42.9320°N, 0.9181°E)
Time: 02:55:54
(UTC+00:00)

Cosmos 1553 Rocket - Pass Details

Date: 20 June 2021
Orbit: 940 x 1009 km, 82.9° (Epoch: 04 August)

Event Time Altitude Azimuth Distance (km) Brightness Sun altitude
Rises 02:02:39 0° 354° (N) 3,715 7.9 -17.7°
Reaches altitude 10° 02:05:14 10° 357° (N) 2,753 7.2 -17.4°
Maximum altitude 02:11:31 68° 80° (E) 1,047 4.3 -16.9°
Drops below altitude 10° 02:17:38 10° 163° (SSE) 2,687 5.9 -16.3°
Enters shadow 02:17:54 - 164° (SSE) 2,782 6.0 -16.2°
